Weather History for Trinity Center, CA

Change the Weather History Date:

Saturday, March 30, 2013

  Actual Average (KMHS) Record (KMHS)
Temperature  
Mean Temperature 54 °F 44 °F  
Max Temperature 71 °F 57 °F 77 °F (2003)
Min Temperature 37 °F 31 °F 17 °F (1938)
Degree Days  
Heating Degree Days 11 21  
Month to date heating degree days 684  
Since 1 July heating degree days 4659  
Cooling Degree Days 0 0  
Month to date cooling degree days 0  
Year to date cooling degree days 0  
Growing Degree Days 4 (Base 50)    
Moisture  
Dew Point 42 °F    
Average Humidity 73    
Maximum Humidity 100    
Minimum Humidity 33    
Precipitation  
Precipitation 0.18 in 0.13 in 2.52 in (1941)
Month to date precipitation 5.83  
Year to date precipitation 20.12  
Sea Level Pressure  
Sea Level Pressure 30.12 in    
Wind  
Wind Speed 3 mph (WSW)    
Max Wind Speed 7 mph    
Max Gust Speed -    
Visibility 10 miles    
Events      
T = Trace of Precipitation, MM = Missing Value Source: NWS Daily Summary

Daily Weather History Graph

Daily Weather History Graph

Search for Another Location

Airport:

Trip Planner

Search our weather history database for the weather conditions in past years. The results will help you decide how hot, cold, wet, or windy it might be!

Date:

Astronomy

Mar. 30, 2013 Rise Set
Actual Time 6:56 AM PDT 7:33 PM PDT
Civil Twilight 6:29 AM PDT 8:01 PM PDT
Nautical Twilight 5:56 AM PDT 8:34 PM PDT
Astronomical Twilight 5:22 AM PDT 9:08 PM PDT
Moon 11:48 PM PDT (3/30) 8:54 AM PDT (3/30)
Length of Visible Light 13h 32m
Length of Day
12h 37m
Waning Gibbous, 85% of the Moon is Illuminated
Mar 30
Waning Gibbous
Apr 2
Last Quarter
Apr 10
New
Apr 18
First Quarter
Apr 25
Full

Hourly Weather History & Observations

Time (PDT) Temp. Windchill Dew Point Humidity Pressure Visibility Wind Dir Wind Speed Gust Speed Precip Events Conditions
12:15 AM 42.8 °F 41.1 °F 39.2 °F 87% 30.19 in 10.0 mi West 3.5 mph - N/A   Clear
12:35 AM 41.0 °F 37.1 °F 39.2 °F 93% 30.20 in 10.0 mi West 5.8 mph - N/A   Clear
12:55 AM 41.0 °F 38.0 °F 39.2 °F 93% 30.19 in 10.0 mi West 4.6 mph - N/A   Clear
1:15 AM 41.0 °F 38.0 °F 39.2 °F 93% 30.19 in 10.0 mi West 4.6 mph - N/A   Clear
1:35 AM 41.0 °F 38.0 °F 39.2 °F 93% 30.19 in 10.0 mi West 4.6 mph - N/A   Clear
1:55 AM 41.0 °F 38.0 °F 39.2 °F 93% 30.20 in 10.0 mi West 4.6 mph - N/A   Clear
2:15 AM 41.0 °F 39.0 °F 37.4 °F 87% 30.20 in 10.0 mi West 3.5 mph - N/A   Clear
2:35 AM 39.2 °F 35.9 °F 37.4 °F 93% 30.20 in 10.0 mi West 4.6 mph - N/A   Clear
2:55 AM 39.2 °F 37.0 °F 37.4 °F 93% 30.19 in 10.0 mi West 3.5 mph - N/A   Clear
3:15 AM 39.2 °F 35.9 °F 37.4 °F 93% 30.19 in 10.0 mi West 4.6 mph - N/A   Clear
3:35 AM 39.2 °F 35.9 °F 37.4 °F 93% 30.19 in 10.0 mi West 4.6 mph - N/A   Clear
3:55 AM 39.2 °F 37.0 °F 37.4 °F 93% 30.18 in 10.0 mi West 3.5 mph - N/A   Clear
4:10 AM 39.2 °F 35.9 °F 37.4 °F 93% 30.18 in 10.0 mi West 4.6 mph - N/A   Clear
4:35 AM 37.4 °F 33.8 °F 37.4 °F 100% 30.17 in 10.0 mi WNW 4.6 mph - N/A   Clear
4:55 AM 37.4 °F 33.8 °F 37.4 °F 100% 30.17 in 10.0 mi West 4.6 mph - N/A   Clear
5:15 AM 37.4 °F 34.9 °F 37.4 °F 100% 30.17 in 10.0 mi West 3.5 mph - N/A   Clear
5:35 AM 37.4 °F 33.8 °F 35.6 °F 93% 30.16 in 10.0 mi West 4.6 mph - N/A   Clear
5:55 AM 37.4 °F 34.9 °F 37.4 °F 100% 30.16 in 10.0 mi West 3.5 mph - N/A   Clear
6:15 AM 37.4 °F 34.9 °F 35.6 °F 93% 30.16 in 10.0 mi WSW 3.5 mph - N/A   Clear
6:30 AM 37.4 °F 34.9 °F 35.6 °F 93% 30.17 in 10.0 mi West 3.5 mph - N/A   Clear
6:50 AM 37.4 °F - 35.6 °F 93% 30.17 in 10.0 mi Calm Calm - N/A   Scattered Clouds
7:15 AM 37.4 °F - 35.6 °F 93% 30.17 in 10.0 mi Calm Calm - N/A   Scattered Clouds
7:35 AM 37.4 °F - 37.4 °F 100% 30.17 in 10.0 mi Calm Calm - N/A   Partly Cloudy
7:55 AM 39.2 °F 37.0 °F 37.4 °F 93% 30.17 in 10.0 mi West 3.5 mph - N/A   Mostly Cloudy
8:15 AM 42.8 °F - 39.2 °F 87% 30.17 in 10.0 mi Calm Calm - N/A   Partly Cloudy
8:35 AM 44.6 °F - 39.2 °F 81% 30.17 in 10.0 mi Calm Calm - N/A   Clear
8:55 AM 44.6 °F - 41.0 °F 87% 30.17 in 10.0 mi Calm Calm - N/A   Scattered Clouds
9:15 AM 46.4 °F - 41.0 °F 81% 30.16 in 10.0 mi Calm Calm - N/A   Scattered Clouds
9:35 AM 46.4 °F - 41.0 °F 81% 30.15 in 10.0 mi Calm Calm - N/A   Partly Cloudy
9:55 AM 48.2 °F - 41.0 °F 76% 30.15 in 10.0 mi Calm Calm - N/A   Clear
10:15 AM 50.0 °F - 41.0 °F 71% 30.14 in 10.0 mi SE 3.5 mph - N/A   Partly Cloudy
10:35 AM 51.8 °F - 41.0 °F 67% 30.14 in 10.0 mi SE 3.5 mph - N/A   Partly Cloudy
10:55 AM 53.6 °F - 41.0 °F 62% 30.13 in 10.0 mi SE 3.5 mph - N/A   Clear
11:15 AM 55.4 °F - 41.0 °F 58% 30.13 in 10.0 mi SE 3.5 mph - N/A   Clear
11:35 AM 57.2 °F - 44.6 °F 63% 30.12 in 10.0 mi SSE 3.5 mph - N/A   Clear
11:55 AM 59.0 °F - 44.6 °F 59% 30.12 in 10.0 mi SSE 3.5 mph - N/A   Clear
12:15 PM 60.8 °F - 42.8 °F 52% 30.11 in 10.0 mi Calm Calm - N/A   Clear
12:35 PM 62.6 °F - 42.8 °F 48% 30.11 in 10.0 mi ENE 3.5 mph - N/A   Clear
12:55 PM 62.6 °F - 41.0 °F 45% 30.10 in 10.0 mi Calm Calm - N/A   Clear
1:15 PM 64.4 °F - 42.8 °F 45% 30.09 in 10.0 mi Calm Calm - N/A   Clear
1:35 PM 66.2 °F - 44.6 °F 46% 30.09 in 10.0 mi SSE 3.5 mph - N/A   Clear
1:55 PM 66.2 °F - 44.6 °F 46% 30.09 in 10.0 mi Calm Calm - N/A   Clear
2:15 PM 68.0 °F - 46.4 °F 46% 30.08 in 10.0 mi Calm Calm - N/A   Clear
2:35 PM 68.0 °F - 44.6 °F 43% 30.07 in 10.0 mi Calm Calm - N/A   Partly Cloudy
2:55 PM 68.0 °F - 44.6 °F 43% 30.06 in 10.0 mi NE 3.5 mph - N/A   Clear
3:15 PM 69.8 °F - 39.2 °F 33% 30.05 in 10.0 mi Calm Calm - N/A   Clear
3:35 PM 71.6 °F - 44.6 °F 38% 30.04 in 10.0 mi ENE 3.5 mph - N/A   Clear
3:55 PM 71.6 °F - 44.6 °F 38% 30.04 in 10.0 mi Calm Calm - N/A   Clear
4:10 PM 71.6 °F - 41.0 °F 33% 30.03 in 10.0 mi Calm Calm - N/A   Clear
4:30 PM 68.0 °F - 46.4 °F 46% 30.03 in 10.0 mi SE 3.5 mph - N/A   Clear
4:55 PM 69.8 °F - 42.8 °F 38% 30.04 in 10.0 mi SE 4.6 mph - N/A   Partly Cloudy
5:15 PM 68.0 °F - 44.6 °F 43% 30.04 in 10.0 mi SE 3.5 mph - N/A   Scattered Clouds
5:35 PM 66.2 °F - 44.6 °F 46% 30.04 in 10.0 mi SE 5.8 mph - N/A   Mostly Cloudy
5:55 PM 66.2 °F - 44.6 °F 46% 30.05 in 10.0 mi SSE 4.6 mph - N/A   Mostly Cloudy
6:10 PM 64.4 °F - 44.6 °F 49% 30.04 in 10.0 mi Calm Calm - N/A   Scattered Clouds
6:35 PM 62.6 °F - 46.4 °F 55% 30.04 in 10.0 mi SSW 4.6 mph - N/A   Mostly Cloudy
6:55 PM 62.6 °F - 48.2 °F 59% 30.05 in 10.0 mi North 3.5 mph - N/A   Overcast
7:15 PM 62.6 °F - 48.2 °F 59% 30.05 in 10.0 mi SSW 3.5 mph - N/A   Overcast
7:35 PM 59.0 °F - 48.2 °F 67% 30.06 in 10.0 mi SSW 3.5 mph - N/A   Overcast
7:55 PM 59.0 °F - 48.2 °F 67% 30.06 in 10.0 mi Calm Calm - N/A   Overcast
8:15 PM 62.6 °F - 44.6 °F 52% 30.06 in 10.0 mi Calm Calm - N/A   Mostly Cloudy
8:35 PM 59.0 °F - 48.2 °F 67% 30.07 in 10.0 mi West 5.8 mph - N/A   Scattered Clouds
8:55 PM 59.0 °F - 48.2 °F 67% 30.07 in 10.0 mi WSW 3.5 mph - N/A   Mostly Cloudy
9:15 PM 57.2 °F - 48.2 °F 72% 30.08 in 10.0 mi Calm Calm - N/A   Overcast
9:35 PM 55.4 °F - 50.0 °F 82% 30.09 in 10.0 mi Calm Calm - N/A   Overcast
9:55 PM 53.6 °F - 50.0 °F 88% 30.10 in 10.0 mi WNW 4.6 mph - 0.01 in   Overcast
10:15 PM 53.6 °F - 50.0 °F 88% 30.12 in 7.0 mi Calm Calm - 0.03 in   Overcast
10:35 PM 53.6 °F - 50.0 °F 88% 30.09 in 5.0 mi NW 3.5 mph - 0.07 in   Overcast
10:55 PM 51.8 °F - 50.0 °F 94% 30.10 in 7.0 mi NE 6.9 mph - 0.08 in   Overcast
11:15 PM 53.6 °F - 50.0 °F 88% 30.11 in 7.0 mi Calm Calm - N/A   Overcast
11:35 PM 51.8 °F - 50.0 °F 94% 30.11 in 4.0 mi NNW 4.6 mph - 0.04 in   Overcast
11:55 PM 51.8 °F - 50.0 °F 94% 30.10 in 5.0 mi Calm Calm - 0.09 in   Overcast